Miscellaneous Local Product
Issued by NWS North Platte, NE

Home | Current Version | Previous Version | Graphics & Text | Print | Product List | Glossary On
Versions: 1 2 3 4 5 6 7 8 9 10 11 12 13 14 15 16 17 18 19 20 21 22 23 24 25 26 27 28 29 30 31 32 33 34 35 36 37 38 39 40 41 42 43 44 45 46 47 48 49 50
000
AXUS43 KLBF 250010
MISLBF


WESTERN AND NORTH CENTRAL NEBRASKA HOURLY WEATHER ROUNDUP
NATIONAL WEATHER SERVICE NORTH PLATTE NE
600 PM CST WED DEC 24 2014

***STATIONS NOT REPORTING VARIABLES SUCH AS SKY/WEATHER OR
PRESSURE ARE PROVIDED BY THE NEBRASKA DEPARTMENT OF
ROADS...RAWS...AND APRS NETWORKS...AND ARE NOT UNDER
NATIONAL WEATHER SERVICE QUALITY CONTROL***

...OBSERVATIONS IN AND NEAR THE EASTERN PANHANDLE OF NEBRASKA...

CITY           SKY/WX    TMP DP  RH WIND       PRES   REMARKS
PINE RIDGE     CLOUDY    33  23  66 SW9       29.53F WCI  25
CHADRON        CLOUDY    35  25  66 W7        29.53F WCI  29
ALLIANCE       MOCLDY    33  24  69 S6        29.56F WCI  28
SIDNEY         MOCLDY    28  21  75 SW9       29.61F WCI  19
WHITECLAY        N/A     30  21  69 E7          N/A  WCI  23
LISCO            N/A     36  21  54 W6          N/A  WCI  31
BIG SPRINGS      N/A     33  26  75 W5          N/A  WCI  28
$$

...OBSERVATIONS IN NORTH CENTRAL NEBRASKA...

CITY           SKY/WX    TMP DP  RH WIND       PRES   REMARKS
VALENTINE      MOCLDY    31  24  75 SW8       29.55F WCI  23
THEDFORD       MOCLDY    36  27  71 S10       29.59S WCI  28
AINSWORTH      MOCLDY    33  25  72 SW10      29.56F WCI  25
O`NEILL        MOCLDY    31  25  77 S10       29.61F WCI  23
ORD            MOCLDY    33  24  69 S7        29.63F WCI  27
BROKEN BOW     PTCLDY    35  25  66 S10       29.62F WCI  27
BROWNLEE         N/A     34  22  62 S10         N/A  WCI  26
BREWSTER         N/A     36  25  65 SW7         N/A  WCI  30
ROSE             N/A     35  29  76 SE7         N/A  WCI  30
COMSTOCK         N/A     37  25  60 S9          N/A  WCI  31
$$

...OBSERVATIONS IN SOUTHWEST NEBRASKA AND FAR NORTHEAST COLORADO...

CITY           SKY/WX    TMP DP  RH WIND       PRES   REMARKS
WRAY           FAIR      37  27  65 SW7       29.63F WCI  32
HOLYOKE        FAIR      36  28  75 SW7       29.62F WCI  30
IMPERIAL       PTCLDY    35  24  64 SW5       29.63F WCI  31
OGALLALA       CLOUDY    33  27  79 W8        29.61F WCI  26
NORTH PLATTE   MOCLDY    35  22  58 S7        29.63F WCI  29
MCCOOK         PTCLDY    38  23  55 SW9       29.67F WCI  31
LEXINGTON      MOCLDY    33  24  70 S7        29.65F WCI  26
PAXTON           N/A     37  27  68 CALM        N/A
GOTHENBURG       N/A     37  21  53 S5          N/A  WCI  33
CALLAWAY         N/A     32  25  76 S12         N/A  WCI  23
$$

...NORTH PLATTE AREA...

CITY           SKY/WX    TMP DP  RH WIND       PRES   REMARKS
AIRPORT        MOCLDY    35  22  58 S7        29.63F WCI  29
$$

...SOME WEATHER OBSERVATIONS FROM AROUND THE REGION...

CITY           SKY/WX    TMP DP  RH WIND       PRES   REMARKS
DENVER         MOCLDY    38  17  42 S8        29.61F WCI  32
LARAMIE        CLOUDY    32  15  49 S13G31    29.65S WCI  22
CHEYENNE       CLOUDY    40  17  39 W23G35    29.58F WCI  30
SCOTTSBLUFF    PTCLDY    41  26  55 W12       29.57F
RAPID CITY     CLOUDY    35  25  66 E5        29.46F WCI  31
PIERRE         PTCLDY    25  20  81 S5        29.52F WCI  19
WINNER         FAIR      35  22  58 SW16      29.54F WCI  25
SIOUX FALLS    CLOUDY    26  24  92 SW5       29.65F FOG     WCI  20
OMAHA          CLOUDY    30  26  85 SW9       29.78S WCI  22
GRAND ISLAND   PTCLDY    32  23  69 S7        29.69F WCI  26
KANSAS CITY    CLOUDY    34  28  79 W8        29.83R WCI  27
WICHITA        PTCLDY    34  23  64 S6        29.85S WCI  29
HAYS           CLEAR     36  16  44 S8        29.78F WCI  29
LIBERAL        CLEAR     37  12  35 SW10      29.82F WCI  30
GOODLAND       PTCLDY    38  19  46 SW16      29.68F WCI  29
$$



USA.gov is the U.S. government's official web portal to all federal, state and local government web resources and services.